Regional Weather Roundup
Issued by NWS

Home | Current Version | Previous Version | Text Only | Print | Product List | Glossary On
Versions: 1 2 3 4 5 6 7 8 9 10 11 12 13 14 15 16 17 18 19 20 21 22 23 24 25 26 27 28 29 30 31 32 33 34 35 36 37 38 39 40 41 42 43 44 45 46 47 48 49 50
000
ASUS46 KSTO 211115
RWRCA

NORTHERN AND CENTRAL CA REGIONAL WEATHER ROUNDUP
NATIONAL WEATHER SERVICE SACRAMENTO CA
400 AM PDT MON MAY 21 2018

NOTE: FAIR INDICATES FEW OR NO CLOUDS BELOW 12,000 FEET WITH NO
SIGNIFICANT WEATHER AND/OR OBSTRUCTIONS TO VISIBILITY.

CAZ001-003-211200-
NORTHWEST AREA

CITY           SKY/WX    TMP DP  RH WIND       PRES   REMARKS
CRESCENT CITY  MOCLDY    48  46  93 E3        30.00S
UKIAH          CLEAR     49  43  80 CALM      29.90S
$$

CAZ006-505>513-211200-
BAY AREA

CITY           SKY/WX    TMP DP  RH WIND       PRES   REMARKS
SANTA ROSA     CLEAR     48  47  96 CALM      29.83F
SAN RAFAEL     N/A       50  MM  MM MISG
NAPA           CLEAR    N/A N/A N/A CALM      29.85S
CONCORD        CLEAR     54  48  80 S13       29.85F
OAKLAND CITY   N/A      MM  MM  MM MISG
OAKLAND        CLOUDY    53  49  86 SE9       29.87S
SAN FRAN CITY  N/A       MM  MM  MM MISG
SAN FRAN ARPT  MOCLDY    53  47  79 S5        29.86F
LIVERMORE      CLOUDY    53  50  89 VRB3      29.85F
HAYWARD        MOCLDY    53  47  79 SW6       29.86F
REDWOOD CITY   N/A       53  MM  82 MISG
MOFFETT ARPT   CLOUDY    54  48  80 CALM      29.88F
SAN JOSE ARPT  CLOUDY    56  47  71 CALM      29.87F
$$
CAZ034-037-514>518-211200-
CENTRAL COAST

CITY           SKY/WX    TMP DP  RH WIND       PRES   REMARKS
WATSONVILLE    CLOUDY    52  48  86 CALM      29.89F
SALINAS        CLOUDY    53  49  86 W12       29.90F
MONTEREY       CLOUDY    53  49  86 SW8       29.92F
SAN LUIS OBISP CLOUDY    53  48  83 W7        29.91S
SANTA MARIA    CLOUDY    51  48  89 NW3       29.90F
$$
CAZ015-016-211200-
NORTHERN SACRAMENTO VALLEY

CITY           SKY/WX    TMP DP  RH WIND       PRES   REMARKS
REDDING        CLEAR     57  53  86 N5        29.84R
RED BLUFF      CLEAR     55  51  86 NW6       29.84S
OROVILLE       CLEAR     57  49  74 S7        29.84S
$$
CAZ016>018-211200-
SOUTHERN SACRAMENTO VALLEY

CITY           SKY/WX    TMP DP  RH WIND       PRES   REMARKS
AUBURN         PTCLDY    48  46  93 E3        29.84S
BEALE AFB      CLEAR     50  47  87 SE3       29.82S
LINCOLN        FAIR      48  45  87 SE3       29.82F
MARYSVILLE     CLEAR     50  47  89 SE3       29.84S
SAC INTL ARPT  CLEAR     52  48  86 SE7       29.82S
MATHER AIRPORT NOT AVBL
DOWNTOWN SAC   N/A       53  MM  MM MISG
SAC EXEC ARPT  CLEAR     52  50  93 S5        29.83S
VACAVILLE      CLEAR     52  51  97 SW3       29.83F
TRAVIS AFB     CLEAR     50  47  89 SW14      29.81S
$$
CAZ019>021-211200-
SAN JOAQUIN VALLEY

CITY           SKY/WX    TMP DP  RH WIND       PRES   REMARKS
STOCKTON       CLEAR     53  47  79 W8        29.83S
MODESTO        PTCLDY    53  47  79 NW5       29.82F
MERCED         MOCLDY    53  47  79 NW5       29.82F
LEMOORE        PTCLDY    51  42  71 NW8       29.83S
FRESNO         PTCLDY    55  45  68 NW9       29.82S
HANFORD        MOCLDY    57  45  64 N7        29.83R
PORTERVILLE    MOCLDY    56  48  74 W5        29.83S
BAKERSFIELD    PTCLDY    60  45  57 NW7       29.82F
$$
CAZ011-012-071-211200-
NORTHERN MOUNTAINS

CITY           SKY/WX    TMP DP  RH WIND       PRES   REMARKS
YREKA          CLEAR     44  41  89 CALM      29.97S
MOUNT SHASTA   CLEAR     46  43  89 CALM      29.95S
ALTURAS        CLEAR     42  41  96 CALM      29.96S
$$
CAZ011-012-071-211200-
SIERRA NEVADA MTNS

CITY           SKY/WX    TMP DP  RH WIND       PRES   REMARKS
BLUE CANYON    PTCLDY    52  36  54 E3        29.92S
TRUCKEE        CLOUDY    36  34  93 CALM      29.97F
TAHOE VLY ARPT CLOUDY    44  41  89 S5        29.95S
MAMMOTH LAKES  MOCLDY    41  38  89 W8        29.97S
$$




USA.gov is the U.S. government's official web portal to all federal, state and local government web resources and services.